Moose Lake, MN

12:43 AM CDT on August 19, 2017 (GMT -0500)
Moose Lake-Carlton County

Weather History for KMZH - October, 2012

Change the Weather History Date:

Sunday, October 28, 2012

  Actual Average Record
Temperature  
Mean Temperature 34 °F -  
Max Temperature 41 °F 51 °F 71 °F (1948)
Min Temperature 28 °F 28 °F 14 °F (1980)
Degree Days  
Heating Degree Days 30    
Moisture  
Dew Point 20 °F    
Average Humidity 57    
Maximum Humidity 74    
Minimum Humidity 33    
Precipitation  
Precipitation 0.00 in - - ()
Sea Level Pressure  
Sea Level Pressure 30.28 in    
Wind  
Wind Speed 2 mph (SSW)    
Max Wind Speed 15 mph    
Max Gust Speed 18 mph    
Visibility 10 miles    
Events      
Averages and records for this station are not official NWS values.
T = Trace of Precipitation, MM = Missing Value Source: NWS Daily Summary

Daily Weather History Graph

Daily Weather History Graph

Search for Another Location

Airport or City:

Trip Planner

Search our weather history database for the weather conditions in past years. The results will help you decide how hot, cold, wet, or windy it might be!

Date:

Astronomy

Oct. 28, 2012 Rise Set
Actual Time 7:47 AM CDT 6:01 PM CDT
Civil Twilight 7:16 AM CDT 6:32 PM CDT
Nautical Twilight 6:40 AM CDT 7:08 PM CDT
Astronomical Twilight 6:06 AM CDT 7:42 PM CDT
Moon 5:19 PM CDT (10/28) 6:39 AM CDT (10/28)
Length of Visible Light 11h 16m
Length of Day
10h 13m
Waxing Gibbous, 99% of the Moon is Illuminated
Oct 28
Waxing Gibbous
Oct 29
Full
Nov 6
Last Quarter
Nov 13
New
Nov 20
First Quarter

Hourly Weather History & Observations

Time (CDT) Temp. Windchill Dew Point Humidity Pressure Visibility Wind Dir Wind Speed Gust Speed Precip Events Conditions
12:10 AM 32.0 °F - 15.8 °F 51% 30.30 in 10.0 mi Calm Calm - N/A   Overcast
1:10 AM 32.0 °F - 17.6 °F 55% 30.30 in 10.0 mi Calm Calm - N/A   Overcast
1:30 AM 30.2 °F - 17.6 °F 60% 30.30 in 10.0 mi Calm Calm - N/A   Overcast
1:50 AM 32.0 °F - 15.8 °F 51% 30.30 in 10.0 mi Calm Calm - N/A   Overcast
2:10 AM 30.2 °F - 17.6 °F 60% 30.30 in 10.0 mi Calm Calm - N/A   Overcast
2:30 AM 32.0 °F - 15.8 °F 51% 30.30 in 10.0 mi Calm Calm - N/A   Overcast
2:50 AM 30.2 °F - 17.6 °F 60% 30.29 in 10.0 mi Calm Calm - N/A   Mostly Cloudy
3:10 AM 30.2 °F - 17.6 °F 60% 30.28 in 10.0 mi Calm Calm - N/A   Clear
3:30 AM 30.2 °F 26.7 °F 17.6 °F 60% 30.28 in 10.0 mi ESE 3.5 mph - N/A   Mostly Cloudy
3:50 AM 30.2 °F - 19.4 °F 64% 30.28 in 10.0 mi Calm Calm - N/A   Overcast
4:10 AM 30.2 °F - 19.4 °F 64% 30.28 in 10.0 mi Calm Calm - N/A   Scattered Clouds
4:30 AM 30.2 °F - 19.4 °F 64% 30.28 in 10.0 mi Calm Calm - N/A   Scattered Clouds
4:50 AM 28.4 °F - 19.4 °F 69% 30.28 in 10.0 mi Calm Calm - N/A   Scattered Clouds
5:10 AM 28.4 °F - 17.6 °F 64% 30.29 in 10.0 mi Calm Calm - N/A   Scattered Clouds
5:30 AM 28.4 °F - 17.6 °F 64% 30.29 in 10.0 mi Calm Calm - N/A   Scattered Clouds
5:50 AM 28.4 °F - 17.6 °F 64% 30.28 in 10.0 mi Calm Calm - N/A   Scattered Clouds
6:10 AM 28.4 °F - 17.6 °F 64% 30.28 in 10.0 mi Calm Calm - N/A   Mostly Cloudy
6:30 AM 28.4 °F - 19.4 °F 69% 30.29 in 10.0 mi Calm Calm - N/A   Overcast
6:50 AM 28.4 °F - 19.4 °F 69% 30.29 in 10.0 mi Calm Calm - N/A   Overcast
7:10 AM 28.4 °F - 19.4 °F 69% 30.29 in 10.0 mi Calm Calm - N/A   Overcast
7:30 AM 28.4 °F - 19.4 °F 69% 30.29 in 10.0 mi Calm Calm - N/A   Overcast
7:50 AM 28.4 °F - 19.4 °F 69% 30.29 in 10.0 mi Calm Calm - N/A   Overcast
8:10 AM 30.2 °F - 19.4 °F 64% 30.30 in 10.0 mi Calm Calm - N/A   Overcast
8:30 AM 28.4 °F - 21.2 °F 74% 30.30 in 10.0 mi Calm Calm - N/A   Overcast
8:50 AM 30.2 °F - 21.2 °F 69% 30.30 in 10.0 mi Calm Calm - N/A   Overcast
9:30 AM 30.2 °F - 21.2 °F 69% 30.30 in 10.0 mi Calm Calm - N/A   Overcast
9:50 AM 32.0 °F - 21.2 °F 64% 30.30 in 10.0 mi Calm Calm - N/A   Overcast
10:10 AM 32.0 °F 28.7 °F 19.4 °F 60% 30.30 in 10.0 mi South 3.5 mph - N/A   Overcast
10:30 AM 32.0 °F 26.4 °F 19.4 °F 60% 30.30 in 10.0 mi SSW 5.8 mph - N/A   Overcast
10:50 AM 32.0 °F 28.7 °F 19.4 °F 60% 30.30 in 10.0 mi SSW 3.5 mph - N/A   Overcast
11:10 AM 33.8 °F 30.8 °F 21.2 °F 60% 30.30 in 10.0 mi SW 3.5 mph - N/A   Overcast
11:30 AM 35.6 °F - 19.4 °F 52% 30.30 in 10.0 mi Calm Calm - N/A   Overcast
12:10 PM 37.4 °F 33.8 °F 19.4 °F 48% 30.29 in 10.0 mi WSW 4.6 mph - N/A   Overcast
12:30 PM 39.2 °F 33.0 °F 19.4 °F 45% 30.28 in 10.0 mi SW 9.2 mph - N/A   Overcast
12:50 PM 41.0 °F 35.2 °F 17.6 °F 39% 30.28 in 10.0 mi SSW 9.2 mph 18.4 mph N/A   Overcast
1:10 PM 41.0 °F 33.5 °F 17.6 °F 39% 30.28 in 10.0 mi SW 13.8 mph 18.4 mph N/A   Overcast
1:30 PM 41.0 °F 34.3 °F 17.6 °F 39% 30.28 in 10.0 mi SW 11.5 mph 18.4 mph N/A   Overcast
1:50 PM 41.0 °F 34.3 °F 17.6 °F 39% 30.28 in 10.0 mi SSW 11.5 mph 17.3 mph N/A   Overcast
2:10 PM 39.2 °F 30.8 °F 19.4 °F 45% 30.27 in 10.0 mi SSW 15.0 mph 18.4 mph N/A   Overcast
2:30 PM 39.2 °F 37.0 °F 21.2 °F 49% 30.26 in 10.0 mi South 3.5 mph - N/A   Overcast
2:50 PM 41.0 °F 37.1 °F 19.4 °F 42% 30.26 in 10.0 mi SW 5.8 mph - N/A   Overcast
3:10 PM 41.0 °F 36.4 °F 17.6 °F 39% 30.26 in 10.0 mi SW 6.9 mph - N/A   Overcast
3:30 PM 41.0 °F 34.3 °F 14.0 °F 33% 30.26 in 10.0 mi SSW 11.5 mph 17.3 mph N/A   Overcast
3:50 PM 41.0 °F 36.4 °F 14.0 °F 33% 30.26 in 10.0 mi SSW 6.9 mph - N/A   Overcast
4:10 PM 41.0 °F 35.8 °F 15.8 °F 36% 30.26 in 10.0 mi SW 8.1 mph - N/A   Overcast
4:30 PM 41.0 °F 36.4 °F 17.6 °F 39% 30.26 in 10.0 mi SSW 6.9 mph - N/A   Overcast
4:50 PM 39.2 °F 33.6 °F 19.4 °F 45% 30.27 in 10.0 mi SW 8.1 mph - N/A   Overcast
5:10 PM 37.4 °F 33.8 °F 19.4 °F 48% 30.27 in 10.0 mi SW 4.6 mph - N/A   Overcast
5:30 PM 37.4 °F 32.8 °F 19.4 °F 48% 30.27 in 10.0 mi SW 5.8 mph - N/A   Overcast
5:50 PM 37.4 °F 34.9 °F 19.4 °F 48% 30.27 in 10.0 mi South 3.5 mph - N/A   Overcast
6:10 PM 37.4 °F - 21.2 °F 52% 30.28 in 10.0 mi Calm Calm - N/A   Overcast
6:30 PM 37.4 °F - 21.2 °F 52% 30.28 in 10.0 mi Calm Calm - N/A   Overcast
6:50 PM 37.4 °F - 21.2 °F 52% 30.28 in 10.0 mi Calm Calm - N/A   Overcast
7:10 PM 35.6 °F - 21.2 °F 56% 30.28 in 10.0 mi Calm Calm - N/A   Overcast
7:30 PM 35.6 °F - 21.2 °F 56% 30.28 in 10.0 mi Calm Calm - N/A   Overcast
7:50 PM 33.8 °F - 21.2 °F 60% 30.28 in 10.0 mi Calm Calm - N/A   Overcast
8:10 PM 33.8 °F - 23.0 °F 65% 30.28 in 10.0 mi Calm Calm - N/A   Overcast
8:50 PM 33.8 °F - 23.0 °F 65% 30.28 in 10.0 mi Calm Calm - N/A   Overcast
9:10 PM 33.8 °F - 23.0 °F 65% 30.28 in 10.0 mi Calm Calm - N/A   Overcast
9:30 PM 33.8 °F - 23.0 °F 65% 30.28 in 10.0 mi Calm Calm - N/A   Overcast
9:50 PM 33.8 °F - 24.8 °F 70% 30.29 in 10.0 mi Calm Calm - N/A   Overcast
10:10 PM 33.8 °F - 23.0 °F 65% 30.28 in 10.0 mi Calm Calm - N/A   Overcast
10:30 PM 33.8 °F - 24.8 °F 70% 30.29 in 10.0 mi Calm Calm - N/A   Overcast
10:50 PM 33.8 °F - 24.8 °F 70% 30.29 in 10.0 mi Calm Calm - N/A   Overcast
11:10 PM 33.8 °F - 23.0 °F 65% 30.29 in 10.0 mi Calm Calm - N/A   Overcast
11:50 PM 33.8 °F - 23.0 °F 65% 30.29 in 10.0 mi Calm Calm - N/A   Overcast